Desert Center, CA

2:01 PM PST on February 27, 2017 (GMT -0800)
Blythe

Weather History for KBLH - April, 2013

Change the Weather History Date:

Friday, April 19, 2013

  Actual Average Record
Temperature  
Mean Temperature 68 °F -  
Max Temperature 84 °F 84 °F 106 °F (1980)
Min Temperature 53 °F 55 °F 45 °F (1995)
Cooling Degree Days 4    
Growing Degree Days 18 (Base 50)    
Moisture  
Dew Point 13 °F    
Average Humidity 12    
Maximum Humidity 17    
Minimum Humidity 6    
Precipitation  
Precipitation 0.00 in - - ()
Sea Level Pressure  
Sea Level Pressure 30.05 in    
Wind  
Wind Speed 4 mph (SE)    
Max Wind Speed 8 mph    
Max Gust Speed -    
Visibility 10 miles    
Events      
Averages and records for this station are not official NWS values.
T = Trace of Precipitation, MM = Missing Value Source: NWS Daily Summary

Daily Weather History Graph

Daily Weather History Graph

Search for Another Location

Airport or City:

Trip Planner

Search our weather history database for the weather conditions in past years. The results will help you decide how hot, cold, wet, or windy it might be!

Date:

Astronomy

Apr. 19, 2013 Rise Set
Actual Time 6:03 AM PDT 7:13 PM PDT
Civil Twilight 5:37 AM PDT 7:39 PM PDT
Nautical Twilight 5:06 AM PDT 8:09 PM PDT
Astronomical Twilight 4:34 AM PDT 8:41 PM PDT
Moon 1:18 PM PDT (4/19) 2:02 AM PDT (4/19)
Length of Visible Light 14h 01m
Length of Day
13h 09m
Waxing Gibbous, 62% of the Moon is Illuminated
Apr 19
Waxing Gibbous
Apr 25
Full
May 2
Last Quarter
May 9
New
May 17
First Quarter

Hourly Weather History & Observations

Time (PDT) Temp. Dew Point Humidity Pressure Visibility Wind Dir Wind Speed Gust Speed Precip Events Conditions
12:52 AM 59.0 °F 7.0 °F 13% 30.14 in 10.0 mi NNW 5.8 mph - N/A   Clear
1:52 AM 57.9 °F 8.1 °F 14% 30.12 in 10.0 mi North 8.1 mph - N/A   Clear
2:52 AM 55.9 °F 10.0 °F 16% 30.13 in 10.0 mi NE 3.5 mph - N/A   Clear
3:52 AM 55.9 °F 8.1 °F 15% 30.11 in 10.0 mi NNW 3.5 mph - N/A   Clear
4:52 AM 53.1 °F 9.0 °F 17% 30.12 in 10.0 mi North 3.5 mph - N/A   Clear
5:52 AM 54.0 °F 7.0 °F 15% 30.14 in 10.0 mi SW 5.8 mph - N/A   Clear
6:52 AM 54.0 °F 9.0 °F 17% 30.17 in 10.0 mi SSW 5.8 mph - N/A   Clear
7:52 AM 61.0 °F 10.0 °F 13% 30.17 in 10.0 mi Calm Calm - N/A   Clear
8:52 AM 66.0 °F 16.0 °F 15% 30.17 in 10.0 mi Calm Calm - N/A   Clear
9:52 AM 72.0 °F 16.0 °F 12% 30.18 in 10.0 mi Calm Calm - N/A   Clear
10:52 AM 73.9 °F 15.1 °F 11% 30.17 in 10.0 mi Variable 4.6 mph - N/A   Clear
11:52 AM 78.1 °F 15.1 °F 9% 30.14 in 10.0 mi NE 3.5 mph - N/A   Clear
12:52 PM 79.0 °F 15.1 °F 9% 30.10 in 10.0 mi Calm Calm - N/A   Clear
1:52 PM 80.1 °F 10.9 °F 7% 30.06 in 10.0 mi East 5.8 mph - N/A   Clear
2:52 PM 84.0 °F 9.0 °F 6% 30.01 in 10.0 mi Variable 6.9 mph - N/A   Clear
3:52 PM 84.0 °F 8.1 °F 6% 29.98 in 10.0 mi Calm Calm - N/A   Clear
4:52 PM 82.9 °F 10.9 °F 7% 29.95 in 10.0 mi Calm Calm - N/A   Clear
5:52 PM 82.9 °F 10.9 °F 7% 29.93 in 10.0 mi South 4.6 mph - N/A   Clear
6:52 PM 79.0 °F 21.0 °F 12% 29.92 in 10.0 mi SE 6.9 mph - N/A   Clear
7:52 PM 75.9 °F 19.9 °F 12% 29.91 in 10.0 mi South 4.6 mph - N/A   Clear
8:52 PM 72.0 °F 21.0 °F 15% 29.92 in 10.0 mi SW 3.5 mph - N/A   Clear
9:52 PM 66.9 °F 18.0 °F 15% 29.92 in 10.0 mi Calm Calm - N/A   Clear
10:52 PM 68.0 °F 15.1 °F 13% 29.91 in 10.0 mi WSW 4.6 mph - N/A   Clear
11:52 PM 64.0 °F 15.1 °F 15% 29.91 in 10.0 mi ESE 3.5 mph - N/A   Clear